Leadville, CO

3:09 PM MDT on June 24, 2018 (GMT -0600)
Lake County

Weather History for KLXV - September, 2017

Change the Weather History Date:

Thursday, September 14, 2017

  Actual Average Record
Temperature  
Mean Temperature 50 °F -  
Max Temperature 63 °F 61 °F 76 °F (1990)
Min Temperature 37 °F 31 °F 19 °F (1993)
Degree Days  
Heating Degree Days 15 19  
Month to date heating degree days 175 236  
Since 1 July heating degree days 836 958  
Cooling Degree Days 0 0  
Month to date cooling degree days 0 0  
Year to date cooling degree days 0 0  
Moisture  
Dew Point 34 °F    
Average Humidity 60    
Maximum Humidity 93    
Minimum Humidity 27    
Precipitation  
Precipitation 0.07 in 0.04 in 0.30 in (2011)
Month to date precipitation 0.12 0.58  
Year to date precipitation 13.70 9.53  
Sea Level Pressure  
Sea Level Pressure 29.87 in    
Wind  
Wind Speed 5 mph (NNE)    
Max Wind Speed 22 mph    
Max Gust Speed 32 mph    
Visibility 9 miles    
Events Rain , Thunderstorm    
T = Trace of Precipitation, MM = Missing Value Source: NWS Daily Summary

Daily Weather History Graph

Daily Weather History Graph

Search for Another Location

Airport or City:

Astronomy

Sep. 14, 2017 Rise Set
Actual Time 6:45 AM MDT 7:14 PM MDT
Civil Twilight 6:19 AM MDT 7:41 PM MDT
Nautical Twilight 5:47 AM MDT 8:13 PM MDT
Astronomical Twilight 5:14 AM MDT 8:45 PM MDT
Moon 12:46 AM MDT (9/14) 3:32 PM MDT (9/14)
Length of Visible Light 13h 22m
Length of Day
12h 28m
Waning Crescent, 33% of the Moon is Illuminated
Sep 14
Waning Crescent
Sep 19
New
Sep 27
First Quarter
Oct 5
Full
Oct 12
Last Quarter

Hourly Weather History & Observations

Time (MDT) Temp. Windchill Dew Point Humidity Pressure Visibility Wind Dir Wind Speed Gust Speed Precip Events Conditions
12:53 AM 50.0 °F - 32.0 °F 50% 29.78 in 10.0 mi NE 5.8 mph - N/A   Mostly Cloudy
1:53 AM 46.0 °F - 30.9 °F 56% 29.78 in 10.0 mi Calm Calm - N/A   Partly Cloudy
2:53 AM 41.0 °F - 30.9 °F 67% 29.79 in 10.0 mi Calm Calm - N/A   Clear
3:53 AM 42.1 °F 37.7 °F 30.0 °F 62% 29.78 in 10.0 mi NE 6.9 mph - N/A   Mostly Cloudy
4:53 AM 39.9 °F 35.8 °F 30.0 °F 68% 29.80 in 10.0 mi East 5.8 mph - N/A   Partly Cloudy
5:53 AM 39.9 °F - 30.9 °F 70% 29.79 in 10.0 mi Calm Calm - N/A   Mostly Cloudy
6:53 AM 37.9 °F 32.1 °F 30.0 °F 73% 29.84 in 10.0 mi ENE 8.1 mph - N/A   Clear
7:53 AM 43.0 °F 38.2 °F 32.0 °F 65% 29.87 in 10.0 mi NE 8.1 mph - N/A   Clear
8:53 AM 55.0 °F - 33.1 °F 43% 29.80 in 10.0 mi North 4.6 mph - N/A   Clear
9:53 AM 57.9 °F - 30.0 °F 35% 29.78 in 10.0 mi NNE 5.8 mph - N/A   Clear
10:53 AM 60.1 °F - 28.0 °F 30% 29.76 in 10.0 mi WNW 8.1 mph - N/A   Scattered Clouds
11:53 AM 60.1 °F - 28.0 °F 30% 29.76 in 10.0 mi WNW 5.8 mph - N/A   Mostly Cloudy
12:53 PM 61.0 °F - 26.1 °F 26% 29.73 in 10.0 mi SE 10.4 mph - N/A   Mostly Cloudy
1:53 PM 53.1 °F - 36.0 °F 52% 29.81 in 10.0 mi Variable 5.8 mph - N/A   Overcast
2:53 PM 57.9 °F - 28.9 °F 33% 29.77 in 10.0 mi North 10.4 mph - 0.00 in   Partly Cloudy
3:53 PM 57.9 °F - 33.1 °F 39% 29.76 in 10.0 mi NW 16.1 mph 23.0 mph N/A   Mostly Cloudy
4:53 PM 55.9 °F - 34.0 °F 44% 29.77 in 10.0 mi NNW 3.5 mph - N/A   Partly Cloudy
5:53 PM 54.0 °F - 35.1 °F 49% 29.76 in 10.0 mi NW 5.8 mph - N/A   Partly Cloudy
6:46 PM 52.0 °F - 35.1 °F 53% 30.19 in 10.0 mi ESE 3.5 mph - N/A Thunderstorm Mostly Cloudy
6:53 PM 53.1 °F - 35.1 °F 50% 29.80 in 10.0 mi Calm Calm - 0.00 in Rain , Thunderstorm Light Rain
7:04 PM 46.0 °F 40.2 °F 39.9 °F 79% 30.22 in 5.0 mi SW 12.7 mph 28.8 mph 0.01 in Rain , Thunderstorm Light Thunderstorms and Rain
7:20 PM 44.1 °F 40.8 °F 39.9 °F 85% 30.22 in 10.0 mi Variable 5.8 mph - 0.02 in Rain , Thunderstorm Light Rain
7:41 PM 44.1 °F 39.0 °F 39.9 °F 85% 30.22 in 10.0 mi NE 9.2 mph - 0.02 in Rain Light Rain
7:53 PM 44.1 °F 38.6 °F 39.0 °F 82% 29.85 in 10.0 mi North 10.4 mph - 0.02 in   Overcast
8:53 PM 45.0 °F - 39.9 °F 82% 29.75 in 10.0 mi Calm Calm - 0.00 in   Mostly Cloudy
9:53 PM 43.0 °F - 39.9 °F 89% 29.72 in 10.0 mi Calm Calm - N/A   Clear
10:53 PM 43.0 °F 40.3 °F 39.9 °F 89% 29.73 in 4.0 mi SE 4.6 mph - 0.01 in Rain Light Rain
11:18 PM 43.0 °F 41.3 °F 41.0 °F 93% 30.21 in 7.0 mi Variable 3.5 mph - 0.02 in Rain Light Rain
11:27 PM 43.0 °F 41.3 °F 41.0 °F 93% 30.20 in 7.0 mi NNE 3.5 mph - 0.03 in Rain Light Rain
11:53 PM 41.0 °F 39.0 °F 39.0 °F 93% 29.73 in 10.0 mi Variable 3.5 mph - 0.04 in Rain Light Rain